Date String (YYYY-MM-DD hh:mm:ss) UTC,Instrument flags,absolute air pressure of the measurement (hPa),sample flow rate (lpm),inlet stack bypass flow (lpm),air temperature of the measurement (°C),ambient temperature measured by the external sensor (°C),aerosol sample conditioner tube jacket temperature (°C),OPC LED temperature (°C),internal box temperature (°C),relative humidity of the measurement (%),span deviation,mass concentration of particles derived from Lorenz-Mie calculation of OPC scattering (μg/m³),mass concentration of particles derived from Lorenz-Mie calculation of OPC scattering (μg/m³),mass concentration of particles derived from Lorenz-Mie calculation of OPC scattering (μg/m³)
DateTimeUTC,F1_M11,P_M11,Q1_M11,Q2_M11,T1_M11,T2_M11,T3_M11,T4_M11,T5_M11,U1_M11,ZSPAN_M11,X0_M11,X2_M11,X1_M11
2024-05-22 11:00:00,SystemResetWarning,0828.8,4.99,000.00,023.4,022.6,000.0,031.9,025.1,012.1,0000.0,0004.17,0002.17,0001.72
2024-05-22 11:01:00,SystemResetWarning,0828.7,4.99,000.00,023.4,022.6,000.0,031.9,025.1,012.2,0000.0,0004.24,0002.20,0001.74
2024-05-22 11:02:00,SystemResetWarning,0828.7,4.99,000.00,023.4,022.6,000.0,031.9,025.1,012.0,0000.0,0004.30,0002.24,0001.75
2024-05-22 11:03:00,SystemResetWarning,0828.7,5.00,000.00,023.4,022.6,000.0,031.9,025.1,012.1,0000.0,0004.77,0002.27,0001.76
2024-05-22 11:04:00,SystemResetWarning,0828.8,5.01,000.00,023.4,022.6,000.0,031.8,025.1,012.1,0000.0,0006.56,0002.23,0001.76
2024-05-22 11:05:00,SystemResetWarning,0828.8,5.02,000.00,023.4,022.6,000.0,031.8,025.1,012.2,0000.0,0006.47,0002.19,0001.76
2024-05-22 11:06:00,SystemResetWarning,0828.8,4.99,000.00,023.4,022.6,000.0,031.8,025.1,012.1,0000.0,0006.27,0002.20,0001.75
2024-05-22 11:07:00,SystemResetWarning,0828.8,4.99,000.00,023.4,022.6,000.0,031.8,025.1,011.4,0000.0,0005.49,0002.19,0001.75
2024-05-22 11:08:00,SystemResetWarning,0828.8,4.99,000.00,023.4,022.6,000.0,031.8,025.1,011.2,0000.0,0005.50,0002.18,0001.73
2024-05-22 11:09:00,SystemResetWarning,0828.8,5.00,000.00,023.4,022.6,000.0,031.8,025.1,011.3,0000.0,0005.42,0002.16,0001.74
2024-05-22 11:10:00,SystemResetWarning,0828.7,5.00,000.00,023.4,022.6,000.0,031.8,025.1,011.3,0000.0,0005.30,0002.11,0001.74
2024-05-22 11:11:00,SystemResetWarning,0828.8,4.99,000.00,023.4,022.6,000.0,031.8,025.1,011.4,0000.0,0005.18,0002.06,0001.72
2024-05-22 11:12:00,SystemResetWarning,0828.7,5.00,000.00,023.4,022.6,000.0,031.8,025.1,011.4,0000.0,0005.07,0002.02,0001.71
2024-05-22 11:13:00,SystemResetWarning,0828.8,5.00,000.00,023.4,022.6,000.0,031.8,025.1,011.6,0000.0,0005.05,0002.00,0001.69
2024-05-22 11:14:00,SystemResetWarning,0828.7,5.00,000.00,023.4,022.6,000.0,031.8,025.1,011.9,0000.0,0004.61,0001.97,0001.68
2024-05-22 11:15:00,SystemResetWarning,0828.7,5.01,000.00,023.3,022.5,000.0,031.8,025.1,011.8,0000.0,0002.63,0001.94,0001.67
2024-05-22 11:16:00,SystemResetWarning,0828.7,5.00,000.00,023.3,022.5,000.0,031.8,025.0,011.7,0000.0,0002.68,0001.95,0001.67
2024-05-22 11:17:00,SystemResetWarning,0828.7,5.00,000.00,023.3,022.5,000.0,031.7,025.0,011.7,0000.0,0002.62,0001.93,0001.66
2024-05-22 11:18:00,SystemResetWarning,0828.7,4.99,000.00,023.3,022.5,000.0,031.7,025.0,011.5,0000.0,0002.50,0001.91,0001.66
2024-05-22 11:19:00,SystemResetWarning,0828.6,5.00,000.00,023.3,022.4,000.0,031.7,025.0,011.4,0000.0,0002.45,0001.91,0001.65
2024-05-22 11:20:00,SystemResetWarning,0828.6,5.01,000.00,023.3,022.4,000.0,031.7,025.0,011.5,0000.0,0002.40,0001.90,0001.64
2024-05-22 11:21:00,SystemResetWarning,0828.6,5.00,000.00,023.3,022.4,000.0,031.7,025.0,011.6,0000.0,0002.36,0001.89,0001.63
2024-05-22 11:22:00,SystemResetWarning,0828.6,4.99,000.00,023.2,022.4,000.0,031.7,024.9,011.2,0000.0,0002.60,0001.92,0001.64
2024-05-22 11:23:00,SystemResetWarning,0828.6,5.00,000.00,023.2,022.4,000.0,031.6,024.9,011.2,0000.0,0002.64,0001.90,0001.64
2024-05-22 11:24:00,SystemResetWarning,0828.6,4.99,000.00,023.2,022.4,000.0,031.6,025.0,011.4,0000.0,0002.74,0001.91,0001.65
2024-05-22 11:25:00,SystemResetWarning,0828.6,5.01,000.00,023.2,022.4,000.0,031.6,024.9,011.3,0000.0,0002.77,0001.91,0001.65
2024-05-22 11:26:00,SystemResetWarning,0828.6,5.02,000.00,023.2,022.4,000.0,031.6,025.0,011.3,0000.0,0002.77,0001.92,0001.65
2024-05-22 11:27:00,SystemResetWarning,0828.6,5.00,000.00,023.2,022.4,000.0,031.6,024.9,011.2,0000.0,0002.74,0001.92,0001.65
2024-05-22 11:28:00,SystemResetWarning,0828.6,4.99,000.00,023.2,022.4,000.0,031.6,025.0,010.7,0000.0,0002.78,0001.94,0001.65
2024-05-22 11:29:00,SystemResetWarning,0828.6,4.99,000.00,023.2,022.4,000.0,031.6,024.9,010.9,0000.0,0002.79,0001.93,0001.64
2024-05-22 11:30:00,SystemResetWarning,0828.6,5.00,000.00,023.2,022.4,000.0,031.5,024.9,011.1,0000.0,0002.85,0001.94,0001.64
2024-05-22 11:31:00,SystemResetWarning,0828.6,5.00,000.00,023.2,022.4,000.0,031.5,024.9,010.9,0000.0,0002.86,0001.93,0001.63
2024-05-22 11:32:00,SystemResetWarning,0828.6,5.01,000.00,023.2,022.4,000.0,031.5,024.9,011.0,0000.0,0002.90,0001.94,0001.62
2024-05-22 11:33:00,SystemResetWarning,0828.6,5.00,000.00,023.2,022.4,000.0,031.5,024.9,011.2,0000.0,0002.70,0001.93,0001.61
2024-05-22 11:34:00,SystemResetWarning,0828.7,5.00,000.00,023.2,022.4,000.0,031.5,024.9,011.2,0000.0,0002.60,0001.91,0001.60
2024-05-22 11:35:00,SystemResetWarning,0828.6,4.99,000.00,023.2,022.4,000.0,031.5,024.9,011.3,0000.0,0002.46,0001.87,0001.58
2024-05-22 11:36:00,SystemResetWarning,0828.7,4.99,000.00,023.2,022.4,000.0,031.5,024.9,011.5,0000.0,0002.34,0001.83,0001.57
2024-05-22 11:37:00,SystemResetWarning,0828.6,5.00,000.00,023.2,022.4,000.0,031.5,024.9,011.5,0000.0,0002.32,0001.82,0001.56
2024-05-22 11:38:00,SystemResetWarning,0828.6,5.01,000.00,023.2,022.4,000.0,031.5,024.9,011.7,0000.0,0002.38,0001.83,0001.55
2024-05-22 11:39:00,SystemResetWarning,0828.6,5.01,000.00,023.2,022.4,000.0,031.5,024.9,011.3,0000.0,0002.36,0001.80,0001.55
2024-05-22 11:40:00,SystemResetWarning,0828.6,4.99,000.00,023.1,022.4,000.0,031.5,024.9,010.8,0000.0,0002.36,0001.80,0001.54
2024-05-22 11:41:00,SystemResetWarning,0828.6,4.99,000.00,023.1,022.4,000.0,031.5,024.9,011.3,0000.0,0002.25,0001.77,0001.54
2024-05-22 11:42:00,SystemResetWarning,0828.6,4.99,000.00,023.1,022.4,000.0,031.5,024.8,011.1,0000.0,0002.29,0001.76,0001.54
2024-05-22 11:43:00,SystemResetWarning,0828.6,5.01,000.00,023.1,022.4,000.0,031.4,024.9,011.1,0000.0,0002.31,0001.75,0001.54
2024-05-22 11:44:00,SystemResetWarning,0828.6,5.00,000.00,023.1,022.3,000.0,031.4,024.8,011.2,0000.0,0003.03,0001.75,0001.53
2024-05-22 11:45:00,SystemResetWarning,0828.6,5.01,000.00,023.1,022.3,000.0,031.4,024.8,011.2,0000.0,0003.04,0001.75,0001.53
2024-05-22 11:46:00,SystemResetWarning,0828.6,5.01,000.00,023.1,022.3,000.0,031.4,024.8,011.1,0000.0,0003.08,0001.77,0001.53
2024-05-22 11:47:00,SystemResetWarning,0828.6,5.00,000.00,023.1,022.3,000.0,031.4,024.8,011.1,0000.0,0003.07,0001.77,0001.53
2024-05-22 11:48:00,SystemResetWarning,0828.5,5.00,000.00,023.1,022.3,000.0,031.4,024.8,011.3,0000.0,0003.07,0001.76,0001.52
2024-05-22 11:49:00,SystemResetWarning,0828.6,4.99,000.00,023.1,022.3,000.0,031.4,024.8,011.2,0000.0,0003.03,0001.74,0001.52
2024-05-22 11:50:00,SystemResetWarning,0828.6,5.00,000.00,023.1,022.3,000.0,031.4,024.8,011.0,0000.0,0002.97,0001.72,0001.52
2024-05-22 11:51:00,SystemResetWarning,0828.5,5.00,000.00,023.1,022.3,000.0,031.4,024.8,011.1,0000.0,0003.03,0001.72,0001.53
2024-05-22 11:52:00,SystemResetWarning,0828.5,5.00,000.00,023.1,022.3,000.0,031.4,024.8,011.5,0000.0,0003.07,0001.73,0001.52
2024-05-22 11:53:00,SystemResetWarning,0828.4,5.01,000.00,023.1,022.3,000.0,031.4,024.8,011.4,0000.0,0003.02,0001.74,0001.51
2024-05-22 11:54:00,SystemResetWarning,0828.5,5.01,000.00,023.1,022.3,000.0,031.4,024.8,011.2,0000.0,0003.07,0001.74,0001.50
2024-05-22 11:55:00,SystemResetWarning,0828.4,4.99,000.00,023.1,022.4,000.0,031.4,024.8,012.0,0000.0,0002.51,0001.72,0001.50
2024-05-22 11:56:00,SystemResetWarning,0828.5,4.99,000.00,023.1,022.4,000.0,031.3,024.8,012.3,0000.0,0002.37,0001.73,0001.51
2024-05-22 11:57:00,SystemResetWarning,0828.6,5.00,000.00,023.1,022.4,000.0,031.3,024.8,011.9,0000.0,0002.45,0001.76,0001.52
2024-05-22 11:58:00,SystemResetWarning,0828.6,5.01,000.00,023.1,022.4,000.0,031.3,024.8,011.8,0000.0,0003.35,0001.79,0001.53
2024-05-22 11:59:00,SystemResetWarning,0828.6,5.00,000.00,023.1,022.4,000.0,031.3,024.8,012.4,0000.0,0004.32,0001.83,0001.55
